Flag for Poland Weather past 2 weeks in Białystok, Poland

Now
71 °F

Passing clouds.


Feels Like: 74 °F
Forecast: 65 / 90 °F
Wind: 2 mph from Southeast

Location: Bialystok

Current Time: Jul 28, 2014 at 9:41:08 PM

Latest Report: Jul 28, 2014 at 9:00 PM


Visibility: 19 mi

Pressure: 29.93 "Hg

Humidity: 73%

Dew point: 62 °F

Location of BiałystokLocation

Historic Weather in Białystok — Graph

°F

Białystok temperature yesterday

Maximum temperature yesterday: 85 °F (at 2:00 PM)
Minimum temperature yesterday: 58 °F (at 5:00 AM)
Average temperature yesterday: 72 °F

Past Weeks' High & Low Weather Summary

 TemperatureHumidityPressure
High85 °F (Jul 26, 3:00 PM)99% (Jul 14, 6:00 AM)30.16 "Hg (Jul 14, 6:00 AM)
Low49 °F (Jul 14, 4:00 AM)32% (Jul 24, 6:00 PM)29.86 "Hg (Jul 13, 8:00 PM)
Average69 °F69%30.03 "Hg
* Reported Jul 13 8:00 PM — Jul 28 8:00 PM, Białystok, Weather by CustomWeather, © 2014

Note: Actual official high and low records may vary slightly from our data, if they occured in-between our weather recording intervals... More about our weather records

Advertising

Białystok weather history for previous 24 hours

 ConditionsComfort  
Time TempWeatherWind HumidityBarometerVisibility
8:00 PM
Jul 28
76 °FScattered clouds.2 mph63%29.92 "Hg25 mi
7:00 PM79 °FScattered clouds.2 mph58%29.92 "Hg19 mi
6:00 PM81 °FPartly sunny.5 mph56%29.92 "Hg16 mi
5:00 PM80 °FPartly sunny.3 mph58%29.94 "Hg19 mi
4:00 PM78 °FPartly sunny.5 mph61%29.95 "Hg19 mi
3:00 PM80 °FPartly sunny.5 mph56%29.96 "Hg22 mi
2:00 PM78 °FPartly sunny.5 mph60%29.98 "Hg19 mi
1:00 PM78 °FPartly sunny.3 mph61%29.98 "Hg22 mi
12:00 PM77 °FPartly sunny.3 mph64%29.99 "Hg18 mi
11:00 AM77 °FPartly sunny.3 mph68%29.99 "Hg17 mi
10:00 AM72 °FOvercast.2 mph81%30.00 "Hg12 mi
9:00 AM70 °FPartly sunny.2 mph83%30.01 "Hg16 mi
8:00 AM68 °FScattered clouds.2 mph82%30.01 "Hg16 mi
7:00 AM66 °FScattered clouds.2 mph86%30.01 "Hg12 mi
6:00 AM65 °FScattered clouds.1 mph92%30.01 "Hg7 mi
5:00 AM62 °FScattered clouds.1 mph96%30.02 "Hg1 mi
4:00 AM62 °FFog.1 mph94%30.02 "Hg7 mi
3:00 AM65 °FClear.2 mph91%30.02 "Hg7 mi
2:00 AM66 °FPassing clouds.1 mph92%30.03 "Hg6 mi
1:00 AM67 °FThunderstorms. Passing clouds.2 mph90%30.03 "Hg7 mi
12:00 AM67 °FSprinkles. Overcast.1 mph89%30.03 "Hg11 mi
11:00 PM
Jul 27
68 °FOvercast.3 mph86%30.03 "Hg14 mi
10:00 PM72 °FSprinkles. Overcast.3 mph67%30.04 "Hg22 mi
9:00 PM72 °FPassing clouds.2 mph64%30.04 "Hg22 mi
Weather by CustomWeather, © 2014

See weather overviewHow to use our weather pages